www.pogodaiklimat.ru

Погода и климат >> Архив погоды >> Украина >> Харьков


АРХИВ ПОГОДЫ в Харькове

Время (UTC), дата Ветер
(напр.,м/с)
 
Видим.   Явления Облачность Т
(С)
Тd
(С)
f
(%)
Тe
(С)
Тes
(С)
Комфортность P
(гПа)
Po
(гПа)
Тmin
(С)
Tmax
(С)
R
(мм)
R24
(мм)
S
(см)
00 14.02 В 3 10 км {снег} 10/10 270 м
[Sc]
-6.5 -8.1 88 -12 -12 по сезону 1020.8 1000.8
03 14.02 В 3 10 км слабый снег 10/10 270 м
[Sc]
-6.7 -7.9 91 -12 -12 по сезону 1021.2 1001.2
06 14.02 В 3 7000 м снежные зёрна {дождь} 10/10 270 м
[St]
-6.4 -7.6 91 -12 -12 по сезону 1022.7 1002.7 -6.7 0.3 10
09 14.02 В 4 10 км {снег} 10/10 330 м
[St]
-5.0 -7.1 85 -11 -11 по сезону 1023.8 1003.9
12 14.02 В 3 10 км {снег} 10/10 400 м
[Sc]
-4.0 -6.6 82 -9 -9 по сезону 1024.3 1004.4
15 14.02 СВ 4 10 км 10/10 330 м
[Sc]
-4.4 -6.7 84 -11 -11 по сезону 1025.3 1005.4
18 14.02 В 4 10 км 10/10 270 м
[Sc]
-4.5 -6.1 89 -11 -11 по сезону 1025.9 1006.0 -4.0 0.0
21 14.02 В 3 8000 м дымка 10/10 270 м
[St]
-4.1 -5.3 91 -10 -10 по сезону 1026.9 1007.0
00 15.02 В 4 7000 м дымка 10/10 210 м
[St]
-3.7 -5.2 89 -10 -10 по сезону 1027.0 1007.1
03 15.02 В 6 5000 м слабая переохл. морось (гололёд) 10/10 150 м
[St]
-3.8 -4.6 94 -11 -11 по сезону 1027.8 1007.9
06 15.02 В 5 8000 м дымка {морось} 10/10 240 м
[St]
-3.9 -5.4 89 -11 -11 по сезону 1029.0 1009.0 -4.5 0.0 10
09 15.02 В 5 10 км в посл. час снег 10/10 270 м
[Sc]
-2.7 -4.3 89 -9 -9 по сезону 1029.5 1009.6
12 15.02 В 7 10 км {снег} 10/10 300 м
[Sc]
-1.6 -3.7 86 -9 -9 по сезону 1029.2 1009.4
15 15.02 В 5 10 км 10/10 300 м
[Sc]
-2.3 -3.9 89 -9 -9 по сезону 1029.6 1009.8
18 15.02 В 7 7000 м в посл. час переохл. осадки {снег, морось} [диам. гололёда 0 мм] 10/10 240 м
[St]
-1.7 -2.8 92 -9 -9 по сезону 1030.2 1010.4 -1.1 0.0
21 15.02 В 7 6000 м дымка 10/10 120 м
[St]
-2.1 -3.0 94 -10 -10 по сезону 1030.4 1010.6
00 16.02 В 6 7000 м дымка 10/10 180 м
[St]
-2.0 -2.9 94 -9 -9 по сезону 1030.0 1010.2
03 16.02 В 6 6000 м дымка 10/10 150 м
[St]
-3.0 -3.7 95 -11 -11 по сезону 1030.4 1010.5
06 16.02 В 5 10 км 10/10 330 м
[St]
-2.9 -4.2 91 -10 -10 по сезону 1030.5 1010.6 -3.2 9
09 16.02 В 6 10 км в посл. час зёрна {снег} 10/10 300 м
[St]
-2.1 -4.3 85 -9 -9 по сезону 1030.1 1010.3
12 16.02 В 4 10 км {снег} 10/10 360 м
[Sc]
-1.7 -4.4 82 -7 -7 по сезону 1029.7 1009.9
15 16.02 В 4 10 км 10/10 300 м
[Sc]
-2.2 -4.4 85 -8 -8 по сезону 1029.3 1009.5
18 16.02 В 4 4800 м дымка 10/10 210 м
[Sc]
-2.9 -4.2 91 -9 -9 по сезону 1029.3 1009.4 -1.7 0.0
21 16.02 В 4 2400 м слабая переохл. морось (гололёд) 10/10 90 м
[St]
-3.1 -3.5 97 -9 -9 по сезону 1028.4 1008.5
00 17.02 В 4 1200 м слабая переохл. морось (гололёд) [диам. гололёда 1 мм] 10/10 90 м
[St]
-2.7 -3.1 97 -9 -9 по сезону 1027.2 1007.4
03 17.02 В 5 6000 м в посл. час переохл. осадки {морось} 10/10 150 м
[St]
-2.7 -3.1 97 -10 -10 по сезону 1026.5 1006.7
06 17.02 В 3 600 м туман {снег, морось} ?/? -2.7 -2.7 100 -8 -8 по сезону 1025.7 1005.9 -3.1 0.0 9
09 17.02 ЮВ 3 300 м туман ?/? -1.9 -1.9 100 -7 -7 по сезону 1024.5 1004.8
12 17.02 Ю 2 700 м слабая переохл. морось (гололёд) {туман} [диам. гололёда 2 мм] ?/? -1.5 -1.5 100 -6 -6 по сезону 1023.4 1003.7
15 17.02 ЮВ 1 2200 м дымка {морось, туман} 10/10 120 м
[St]
-1.3 -1.8 96 -4 -4 по сезону 1022.8 1003.2
18 17.02 штиль 0 1100 м ливневой снег 10/10 120 м
[Cb cap]
-1.6 -2.1 96 -3 -3 тепло 1022.7 1003.0 -1.3 0.3
21 17.02 штиль 0 400 м слабый снег {ливн. осадки} ?/? -2.0 -2.0 100 -3 -3 тепло 1022.3 1002.6
00 18.02 штиль 0 400 м туман {ливн. осадки, снег} туман ?/? -2.0 -2.0 100 -3 -3 тепло 1022.0 1002.3
03 18.02 штиль 0 100 м переохл. туман ?/? -1.6 -1.6 100 -3 -3 тепло 1021.3 1001.7
06 18.02 З 1 2400 м в посл. час туман [диам. сложн. отлож. 3 мм] 10/10 210 м
[St]
-0.9 -1.3 97 -3 -3 тепло 1022.1 1002.5 -2.2 0.9 11
09 18.02 З 1 5000 м дымка 10/10 240 м
[Sc]
-0.2 -1.1 94 -2 -2 тепло 1022.1 1002.6
12 18.02 ЮЗ 2 10 км 9/9 870 м
[Sc]
+1.2 -2.6 76 -2 -2 по сезону 1021.3 1001.9
15 18.02 ЮЗ 2 10 км 9/9 1200 м
[Sc]
+0.4 -3.6 74 -3 -3 по сезону 1021.9 1002.4
18 18.02 ЮЗ 3 10 км 9/5 1000 м
[Sc Ac und]
-0.8 -4.0 79 -6 -6 по сезону 1022.3 1002.7 +1.4
21 18.02 ЮВ 2 10 км 10/4 1000 м
[Sc Ac und]
-2.5 -4.4 87 -7 -7 по сезону 1021.7 1002.0
00 19.02 Ю 2 10 км 10/0
[Ac und]
-1.3 -3.6 84 -5 -5 по сезону 1021.2 1001.6
03 19.02 ЮЗ 3 5000 м в посл. час снег 10/10 150 м
[Sc]
-1.8 -3.3 89 -7 -7 по сезону 1020.4 1000.8
06 19.02 З 3 2700 м слабый снег 10/8 100 м
[Frnb As op]
-1.1 -1.8 95 -6 -6 по сезону 1021.0 1001.4 -3.2 0.0
09 19.02 З 3 4100 м слабый снег 10/10 300 м
[Sc]
-0.2 -1.9 88 -5 -5 по сезону 1021.2 1001.7
12 19.02 З 4 10 км {ливн. осадки, снег} 10/10 360 м
[Sc]
-0.8 -3.6 81 -6 -6 по сезону 1021.5 1001.9
15 19.02 З 4 7000 м слабый ливневой снег 9/9 540 м
[Cb cap]
-1.3 -3.9 82 -7 -7 по сезону 1022.3 1002.7
18 19.02 З 3 10 км {ливн. осадки} 10/10 1300 м
[Sc]
-2.0 -4.5 83 -7 -7 по сезону 1023.0 1003.3 +0.4 0.0
21 19.02 З 4 7000 м слабый ливневой снег 10/10 330 м
[Cb cap]
-2.9 -4.9 86 -9 -9 по сезону 1023.2 1003.4
00 20.02 З 3 10 км {ливн. осадки} 6/6 1000 м
[Sc]
-4.7 -7.9 78 -10 -10 по сезону 1023.6 1003.7
03 20.02 ЮЗ 2 10 км 9/9 900 м
[Sc]
-5.8 -8.4 82 -10 -10 по сезону 1023.4 1003.4
06 20.02 З 3 7000 м слабый снег 10/8 400 м
[Sc As op]
-5.0 -7.1 85 -10 -10 по сезону 1023.6 1003.7 -6.2 0.2 9
09 20.02 З 3 10 км в посл. час ливневой снег 9/9 360 м
[Sc]
-2.9 -5.9 80 -8 -8 по сезону 1023.8 1004.0
12 20.02 З 3 10 км {ливн. осадки, снег} 9/9 660 м
[Sc]
-2.8 -7.7 69 -8 -7 по сезону 1023.6 1003.8
15 20.02 СЗ 3 10 км 10/10 600 м
[Sc]
-3.4 -7.7 72 -8 -8 по сезону 1023.9 1004.1
18 20.02 С 3 10 км 9/9 660 м
[Sc]
-4.2 -8.0 75 -9 -9 по сезону 1024.9 1005.0 -2.8 0.0
21 20.02 СЗ 2 10 км 9/9 630 м
[Sc]
-5.3 -9.0 75 -9 -9 по сезону 1025.3 1005.3

 

Местоположение метеостанции Харьков (Харьковская область, Украина): широта 49.97 долгота 36.13 высота над уровнем моря 155 м.

В архиве по умолчанию представлена погода в Харькове за последнюю неделю. Архивные данные за месяц целиком и за предыдущие месяцы, начиная с января 2011 года, Вы можете получить, выбрав интересующий диапазон дат из раскрывающегося списка и нажав кнопку "Ввод!".

Внимание! Время в таблицах - всемирное. Для получения местного времени необходимо прибавить поправку, которая в Харькове равна 2 ч.

Смотрите также архив погоды в соседних городах и на ближайших метеорологических станциях:

Погода в Золочеве (Львовская область, Украина) (39 км)
Погода в Боходухове (Харьковская область, Украина) (50 км)
Погода в Слобожанском (Донецкая область, Украина) (50 км)
Погода в Коломаке (Харьковская область, Украина) (66 км)
Погода в Белгороде (Белгородская область, Россия) (80 км)
Погода в Краснограде (Харьковская область, Украина) (82 км)
Погода в Великом Бурлуке (Харьковская область, Украина) (90 км)
Погода в Готне (Белгородская область, Россия) (96 км)
Погода в Купянске (Харьковская область, Украина) (119 км)
Погода в Лозовой (Харьковская область, Украина) (120 км)

Пояснения к столбцам:

Ветер - указаны скорость ветра в м/с - средняя за 10 мин, порывы в срок и между сроками (в фигурных скобках) и направление, откуда дует ветер: С - северный, СВ - северо-восточный, В - восточный, ЮВ - юго-восточный, Ю - южный, ЮЗ - юго-западный, З - западный, СЗ - северо-западный.
Видимость - горизонтальная дальность видимости в метрах или километрах. При видимости от 1 до 10 км при отсутствии осадков обычно наблюдается дымка, при ухудшении видимости до 1 км и менее - туман. В сухую погоду видимость может ухудшаться дымом, пылью или мглою.
Явления - указаны атмосферные явления, наблюдавшиеся в срок или в последний час перед сроком; фигурными скобками обозначены явления, наблюдавшиеся между сроками (за 1-3 часа до срока); квадратными скобками обозначены град или гололедные отложения с указанием их диаметра в мм.
Облачность - указаны через наклонную черту общая и нижняя облачность в баллах и высота нижней границы облаков в метрах; квадратными скобками обозначены формы облаков: Ci - перистые, Cs - перисто-слоистые, Cc - перисто-кучевые, Ac - высококучевые, As - высокослоистые, Sc - слоисто-кучевые, Ns - слоисто-дождевые, Cu - кучевые, Cb - кучево-дождевые. Подробнее классификацию облаков см. в Атласе облаков (PDF).
T - Температура воздуха - температура, измеренная на высоте 2 м над землей.
Td - Температура точки росы - температура, при понижении до которой содержащийся в воздухе водяной пар достигнет насыщения.
f - Относительная влажность воздуха - влажноcть воздуха, измеренная на высоте 2 м над землей.
Te - Эффективная температура - температура, которую ощущает одетый по сезону человек в тени. Характеристика душности погоды. При расчете учитывается влияние влажности воздуха и скорости ветра на теплоощущения человека.
Tes - Эффективная температура на солнце - температура, которую ощущает человек, с поправкой на солнечный нагрев. Характеристика знойности погоды. Зависит от высоты солнца над горизонтом, облачности и скорости ветра. Ночью, в пасмурную погоду, а также при ветре 12 м/с и более поправка равна нулю.
P - Атмосферное давление - приведенное к уровню моря атмосферное давление.
Po - Атмосферное давление - измеренное на уровне метеостанции атмосферное давление.
Tmin - Минимальная температура - минимум температуры воздуха на высоте 2 м над землей.
Tmax - Максимальная температура - максимум температуры воздуха на высоте 2 м над землей.
R - Количество осадков - Количество выпавших осадков за период времени, мм. При наведении курсора мыши на число - период времени, за который выпало указанное количество осадков.
R24 - Количество осадков - Количество выпавших осадков за 24 часа, мм.
S - Снежный покров - Высота снежного покрова, см. При наведении курсора мыши на число - состояние снежного покрова и степень покрытия местности в баллах.